Lid_Strength_Index
3 2 2 2 1 1 2 1 1 1 1 1 2 2 2 1 1 0 0 -0 0 0 0 1 0 0 1 1 1 1 2 2 1 2 2 2 1 1 1 0 0 0 0
3 3 2 2 2 2 2 2 1 1 1 1 1 1 1 1 1 0 0 0 0 0 0 1 1 1 1 1 1 1 2 2 1 3 3 5 4 2 1 1 1 1 0
4 3 3 2 2 2 2 2 2 1 1 1 1 1 1 1 1 1 1 1 0 0 0 0 0 1 1 1 1 1 2 3 2 1 3 6 7 4 2 2 1 1 1
3 3 3 3 2 2 2 2 1 1 1 1 2 2 3 3 2 1 1 1 0 0 0 0 0 1 1 1 1 1 1 2 3 2 2 2 3 6 6 3 2 1 1
3 3 3 2 2 2 2 2 2 2 1 1 1 2 2 2 1 1 1 1 1 0 0 0 0 1 1 1 1 1 1 1 2 3 3 3 2 3 5 6 4 2 1
3 3 2 2 2 2 2 2 2 2 1 1 2 2 2 2 2 2 2 2 1 1 1 0 0 0 1 1 1 1 1 1 1 2 2 3 4 4 4 5 5 5 3
3 3 3 3 2 2 2 2 2 2 2 2 2 2 2 2 2 2 2 2 2 2 1 1 1 1 0 1 1 1 1 1 1 2 2 2 2 2 3 4 4 5 3
3 3 2 2 2 2 2 2 2 2 2 2 2 1 1 2 2 2 2 2 2 1 1 1 1 1 0 0 1 1 1 1 1 1 1 2 2 1 2 3 4 6 5
3 3 2 2 2 2 2 2 2 2 2 2 2 2 1 2 2 1 1 1 1 1 1 1 1 1 0 1 1 1 1 1 1 1 1 1 1 1 1 2 2 4 7
3 3 3 2 2 2 2 1 2 2 2 2 2 2 2 1 1 1 1 1 1 1 1 1 1 1 1 1 1 1 1 1 1 1 1 1 1 1 1 1 2 2 4
4 3 3 3 3 2 2 2 2 2 2 2 2 2 2 1 1 1 1 1 1 1 1 1 1 1 1 1 1 1 1 1 1 1 1 2 1 1 1 1 2 2 2
3 3 4 3 3 3 2 2 2 2 2 2 2 2 2 1 2 1 1 1 1 1 1 1 1 1 1 1 1 1 1 1 2 2 2 2 1 2 1 1 2 2 2
3 3 4 4 4 3 3 3 3 2 2 2 2 2 2 2 2 1 1 1 1 1 1 1 1 1 1 1 1 1 1 1 1 1 2 2 1 2 2 2 2 2 2
4 3 3 4 3 3 3 3 3 2 2 2 2 2 2 2 2 1 1 1 1 1 1 1 1 1 1 1 1 1 1 1 1 1 1 1 1 2 2 2 2 2 2
4 3 3 4 4 4 3 3 3 2 2 2 2 2 2 1 1 1 1 1 1 1 1 1 1 1 1 1 1 1 1 1 1 1 1 1 1 2 3 1 2 2 2
4 4 3 4 4 4 4 3 3 2 2 2 3 2 2 2 2 1 1 1 1 1 1 1 1 1 2 9 7 2 1 1 2 2 1 1 2 3 4 3 4 3 2
4 4 3 3 3 4 3 3 3 2 2 2 2 2 2 2 2 1 2 2 1 1 1 1 1 1 2 9 8 7 1 1 1 1 2 2 1 2 1 4 5 5 5
4 3 3 4 3 3 3 3 2 2 2 2 2 2 2 2 2 2 2 2 2 2 2 1 1 1 3 8 8 8 1 1 1 1 1 1 1 1 1 1 1 1 1
3 2 3 3 3 3 3 3 3 2 2 2 2 2 2 2 2 2 2 2 2 2 2 1 1 1 2 8 9 6 1 2 1 1 1 1 1 7 7 1 2 2 3
3 2 2 3 3 3 3 3 3 2 3 2 2 1 1 2 2 2 2 1 1 2 1 1 1 3 1 8 9 6 1 2 2 2 3 7 3 9 9 1 2 3 3
3 2 2 3 3 3 3 3 3 3 2 1 1 1 2 2 2 2 1 1 2 2 2 2 1 1 1 4 9 9 1 2 2 2 2 2 9 10 9 7 1 2 2
3 3 3 3 3 2 3 3 3 2 1 1 2 2 2 2 2 2 2 1 2 2 2 2 2 1 1 5 9 9 7 4 2 2 1 4 10 11 9 5 9 8 4
3 3 3 3 3 3 3 4 2 1 2 2 2 2 2 2 2 2 2 2 2 3 3 3 3 2 1 2 10 9 8 7 3 4 10 12 11 11 8 11 8 7 1
3 3 3 4 4 3 3 3 2 1 2 2 2 2 2 2 2 2 2 2 2 3 3 3 3 3 2 2 1 3 4 7 5 7 7 9 8 7 7 6 3 1 1
3 3 3 3 4 3 3 2 1 1 2 2 2 2 2 2 2 3 2 2 4 4 2 2 2 3 3 2 3 2 1 1 5 5 4 5 4 3 2 2 1 1 1
4 3 3 3 3 3 3 2 1 1 2 2 3 2 2 2 2 2 3 13 12 12 13 9 3 5 8 10 10 10 10 9 10 3 4 5 5 4 3 2 2 2 2